Terminal Aerodrome Forecast
Issued by NWS

Home | Current Version | Previous Version | Text Only | Print | Product List | Glossary On
Versions: 1 2 3 4 5 6 7 8 9 10 11 12 13 14 15 16 17 18 19 20
000
FTUS44 KLIX 221100
TAFMCB
TAF
KMCB 221138Z 2212/2312 15006KT 1/4SM FG VV002
     FM221500 17007KT P6SM BKN020
     FM222200 19009KT P6SM BKN040
     FM230100 20009KT P6SM BKN020
     FM230400 22006KT P6SM BKN008
     FM231000 18004KT P6SM BKN003=

USA.gov is the U.S. government's official web portal to all federal, state and local government web resources and services.